EW3084 Weather Reports


Display with metric or nautical units.
time (UTC)temp
F
wind
direction
speed
MPH
gust
MPH
rain 1hr
in
rain 24hr
in
rain mn
in
humidity
%
barometer
mb
20260902200003 56 278 1.0 5.0 0.00 0.02 0.02 78
20260902195616 56 277 2.0 5.0 0.00 0.02 0.02 78
20260902194503 56 272 1.0 6.0 0.00 0.02 0.02 77
20260902193819 56 270 1.0 6.0 0.00 0.02 0.02 76
20260902192918 57 272 3.0 7.0 0.00 0.02 0.02 75
20260902191803 57 270 1.0 6.0 0.00 0.02 0.02 74
20260902190903 57 274 1.0 6.0 0.00 0.02 0.02 74
20260902190003 57 265 3.0 9.0 0.00 0.02 0.02 73
20260902185615 58 268 3.0 9.0 0.00 0.02 0.02 73
20260902184503 58 280 4.0 12.0 0.00 0.02 0.02 72
20260902183603 58 267 5.0 12.0 0.00 0.02 0.02 71
20260902182703 58 276 5.0 11.0 0.00 0.02 0.02 71
20260902181803 59 276 4.0 10.0 0.00 0.02 0.02 70
20260902180903 59 273 5.0 13.0 0.00 0.02 0.02 69
20260902180005 59 273 3.0 11.0 0.00 0.02 0.02 69
20260902175403 59 275 5.0 11.0 0.00 0.02 0.02 68
20260902174503 60 267 6.0 12.0 0.00 0.02 0.02 67
20260902173818 60 267 7.0 14.0 0.00 0.02 0.02 66
20260902172703 60 277 5.0 10.0 0.00 0.02 0.02 65
20260902171803 61 272 6.0 14.0 0.00 0.02 0.02 64
20260902170903 61 274 6.0 15.0 0.00 0.02 0.02 62
20260902170003 62 272 5.0 13.0 0.00 0.02 0.02 60
20260902165403 62 273 6.0 13.0 0.00 0.02 0.02 60
20260902164503 62 274 8.0 17.0 0.00 0.02 0.02 59
20260902163603 63 274 8.0 19.0 0.00 0.02 0.02 58
20260902162703 63 280 7.0 15.0 0.00 0.02 0.02 58
20260902161803 64 278 6.0 18.0 0.00 0.02 0.02 56
20260902160903 64 268 7.0 21.0 0.00 0.02 0.02 56
20260902160003 64 274 9.0 18.0 0.00 0.02 0.02 55
20260902155403 64 276 9.0 24.0 0.00 0.02 0.02 56
20260902154503 64 276 7.0 24.0 0.00 0.02 0.02 55
20260902153603 64 269 11.0 23.0 0.00 0.02 0.02 54
20260902152703 65 274 8.0 18.0 0.00 0.02 0.02 52
20260902151803 65 271 9.0 19.0 0.00 0.02 0.02 53
20260902150903 65 275 10.0 22.0 0.00 0.02 0.02 52
20260902150003 65 274 10.0 20.0 0.00 0.02 0.02 52
20260902145403 65 271 10.0 21.0 0.00 0.02 0.02 52
20260902144717 65 267 7.0 19.0 0.00 0.02 0.02 51
20260902143603 65 274 10.0 24.0 0.00 0.02 0.02 52
20260902142705 65 276 9.0 20.0 0.00 0.02 0.02 53
20260902141803 65 271 10.0 20.0 0.00 0.02 0.02 53
20260902140903 65 275 9.0 18.0 0.00 0.02 0.02 52
20260902140003 65 273 8.0 17.0 0.00 0.02 0.02 53
20260902135403 65 272 8.0 15.0 0.00 0.02 0.02 52
20260902134503 65 273 7.0 15.0 0.00 0.02 0.02 52
20260902133603 65 271 10.0 25.0 0.00 0.02 0.02 51
20260902132916 65 271 8.0 25.0 0.00 0.02 0.02 49
20260902131803 65 277 9.0 18.0 0.00 0.02 0.02 52
20260902130903 65 270 10.0 24.0 0.00 0.02 0.02 51
20260902130003 65 267 10.0 25.0 0.00 0.02 0.02 50
20260902125403 65 259 9.0 20.0 0.00 0.02 0.02 53
20260902124503 65 269 10.0 30.0 0.00 0.02 0.02 53
20260902123603 65 276 9.0 18.0 0.00 0.02 0.02 55
20260902122703 64 275 10.0 21.0 0.00 0.02 0.02 54
20260902121803 65 277 10.0 21.0 0.00 0.02 0.02 54
20260902120903 64 274 12.0 22.0 0.00 0.02 0.02 53
20260902120003 65 280 8.0 19.0 0.00 0.02 0.02 53
20260902115403 65 274 8.0 18.0 0.00 0.02 0.02 53
20260902114503 65 269 7.0 17.0 0.00 0.02 0.02 51
20260902113603 64 273 10.0 22.0 0.00 0.02 0.02 54
20260902112703 64 270 11.0 21.0 0.00 0.02 0.02 57
20260902111803 65 270 8.0 20.0 0.00 0.02 0.02 58
20260902110903 65 276 9.0 22.0 0.00 0.02 0.02 58
20260902110004 65 279 10.0 21.0 0.00 0.02 0.02 61
20260902105403 65 280 11.0 21.0 0.00 0.02 0.02 62
20260902104716 64 270 11.0 22.0 0.00 0.02 0.02 63
20260902103603 64 273 11.0 26.0 0.00 0.02 0.02 64
20260902102703 65 268 8.0 17.0 0.00 0.02 0.02 65
20260902101803 65 268 8.0 18.0 0.00 0.02 0.02 67
20260902100903 64 272 8.0 17.0 0.00 0.02 0.02 70
20260902100003 63 277 9.0 22.0 0.00 0.02 0.02 73
20260902095403 62 275 9.0 20.0 0.00 0.02 0.02 74
20260902094503 62 272 10.0 20.0 0.01 0.02 0.02 80
20260902093603 62 274 6.0 20.0 0.02 0.02 0.02 87
20260902092703 62 274 5.0 10.0 0.02 0.02 0.02 93
20260902091803 61 273 6.0 14.0 0.02 0.02 0.02 95
20260902090903 61 273 5.0 11.0 0.02 0.02 0.02 99
20260902090003 60 276 6.0 14.0 0.02 0.02 0.02 100
20260902085403 60 273 6.0 14.0 0.02 0.02 0.02 100
20260902084503 60 270 6.0 14.0 0.01 0.01 0.01 100
20260902083819 60 269 7.0 15.0 0.00 0.00 0.00 97
20260902082703 61 269 6.0 18.0 0.00 0.00 0.00 93
20260902081803 61 280 5.0 18.0 0.00 0.00 0.00 94
20260902081116 60 279 4.0 18.0 0.00 0.00 0.00 97
20260902080003 60 257 3.0 11.0 0.00 0.00 0.00 97
20260902075403 60 263 3.0 9.0 0.00 0.00 0.00 94
20260902074503 60 277 6.0 17.0 0.00 0.00 0.00 93
20260902073818 60 275 3.0 17.0 0.00 0.00 0.00 93
20260902072703 60 271 3.0 9.0 0.00 0.00 0.00 92
20260902071803 60 282 3.0 11.0 0.00 0.00 0.00 91
20260902070903 61 276 5.0 12.0 0.00 0.00 0.00 89
20260902070003 61 271 6.0 12.0 0.00 0.00 0.00 88
20260902065403 60 280 6.0 14.0 0.00 0.00 0.00 88
20260902064503 60 275 6.0 13.0 0.00 0.00 0.00 89
20260902063603 60 275 4.0 11.0 0.00 0.00 0.00 91
20260902062703 59 280 5.0 13.0 0.00 0.00 0.00 91
20260902062016 59 271 4.0 10.0 0.00 0.00 0.00 91
20260902060903 58 282 4.0 11.0 0.00 0.00 0.00 92
20260902060003 58 269 4.0 11.0 0.00 0.00 0.00 93
20260902055403 58 264 7.0 17.0 0.00 0.00 0.00 93
20260902054503 58 269 6.0 14.0 0.00 0.00 0.00 93
20260902053817 58 274 5.0 12.0 0.00 0.00 0.00 95
20260902052703 57 269 5.0 12.0 0.00 0.00 0.00 100
20260902051803 57 277 3.0 11.0 0.00 0.00 0.00 100
20260902050903 57 280 4.0 11.0 0.00 0.00 0.00 100
20260902050005 57 276 5.0 12.0 0.00 0.00 0.00 100
20260902045403 57 280 4.0 12.0 0.00 0.00 0.00 100
20260902044503 58 268 5.0 10.0 0.00 0.00 0.00 100
20260902043603 58 269 6.0 14.0 0.00 0.00 0.00 100
20260902042703 58 273 7.0 14.0 0.00 0.00 0.00 100
20260902041803 58 271 5.0 14.0 0.00 0.00 0.00 100
20260902040903 58 278 5.0 11.0 0.00 0.00 0.00 100
20260902040003 58 264 5.0 12.0 0.00 0.00 0.00 100
20260902035403 58 267 4.0 11.0 0.00 0.00 0.00 100
20260902034503 58 274 7.0 14.0 0.00 0.01 0.00 100
20260902033816 58 275 7.0 14.0 0.00 0.01 0.00 100
20260902032916 58 272 7.0 16.0 0.00 0.01 0.00 100
20260902031803 58 271 6.0 14.0 0.00 0.01 0.00 100
20260902030903 58 280 5.0 14.0 0.00 0.01 0.00 100
20260902030003 58 273 4.0 11.0 0.00 0.01 0.00 100
20260902025617 57 273 4.0 11.0 0.00 0.01 0.00 100
20260902024503 57 278 2.0 7.0 0.00 0.01 0.00 100
20260902023603 56 281 1.0 6.0 0.00 0.01 0.00 100
20260902022703 56 306 1.0 4.0 0.00 0.01 0.00 100
20260902021803 56 316 0.0 2.0 0.00 0.01 0.00 100
20260902021118 55 316 0.0 1.0 0.00 0.01 0.00 100
20260902020003 55 316 0.0 2.0 0.00 0.01 0.00 100
20260902015617 55 0 0.0 0.0 0.00 0.01 0.00 100
20260902014716 55 0 0.0 0.0 0.00 0.01 0.00 100
20260902013603 56 0 0.0 0.0 0.00 0.01 0.00 100
20260902012703 56 316 0.0 3.0 0.00 0.01 0.00 100
20260902011803 55 317 0.0 4.0 0.00 0.01 0.00 100
20260902010903 55 298 1.0 4.0 0.00 0.01 0.00 100
20260902010003 56 285 1.0 6.0 0.00 0.01 0.00 100
20260902005403 56 275 1.0 6.0 0.00 0.01 0.00 100
20260902004503 56 271 2.0 7.0 0.00 0.01 0.00 100
20260902003603 56 275 2.0 5.0 0.00 0.01 0.00 100
20260902002703 56 275 3.0 10.0 0.00 0.01 0.00 100
20260902002018 56 275 3.0 10.0 0.00 0.01 0.00 100
20260902000903 56 283 3.0 10.0 0.00 0.01 0.00 100
20260902000218 56 278 3.0 7.0 0.00 0.01 0.00 100
20260901235403 56 268 3.0 7.0 0.00 0.01 0.00 100
20260901234503 56 274 2.0 8.0 0.00 0.01 0.00 100
20260901233603 56 270 2.0 5.0 0.00 0.01 0.00 100
20260901232703 56 271 3.0 6.0 0.00 0.01 0.00 100
20260901231803 57 275 5.0 9.0 0.00 0.01 0.00 100
20260901230903 56 272 2.0 9.0 0.00 0.01 0.00 100
20260901230003 56 280 2.0 7.0 0.00 0.01 0.00 100
20260901225616 56 286 0.0 7.0 0.00 0.01 0.00 100
20260901224503 57 282 2.0 8.0 0.00 0.01 0.00 100
20260901223603 57 283 2.0 10.0 0.00 0.01 0.00 100
20260901222703 57 281 3.0 7.0 0.00 0.01 0.00 100
20260901221803 57 295 2.0 7.0 0.00 0.01 0.00 100
20260901220903 58 270 3.0 10.0 0.00 0.01 0.00 99
20260901220003 58 270 5.0 11.0 0.00 0.01 0.00 99
20260901215403 58 274 6.0 15.0 0.00 0.01 0.01 99
20260901214503 57 277 4.0 12.0 0.00 0.01 0.01 99
20260901213603 57 281 3.0 7.0 0.00 0.01 0.01 96
20260901212703 57 290 3.0 9.0 0.00 0.01 0.01 94
20260901211803 57 289 1.0 5.0 0.00 0.01 0.01 93
20260901210903 57 281 1.0 3.0 0.00 0.01 0.01 91
20260901210216 57 289 0.0 3.0 0.00 0.01 0.01 90
20260901205403 57 293 0.0 2.0 0.00 0.01 0.01 89
20260901204503 57 285 0.0 3.0 0.00 0.01 0.01 88
20260901203603 57 293 0.0 3.0 0.00 0.01 0.01 87
20260901202917 57 302 0.0 3.0 0.00 0.01 0.01 87
20260901201803 57 303 0.0 3.0 0.00 0.01 0.01 87
20260901200903 57 287 0.0 3.0 0.00 0.01 0.01 86